LOBO55 -KSAN

Flight info

Callsign LOBO55
Flight time N/A
Altitude VFR
Route PW
Aircraft TEX2/L-VGD/C

Departure

Time N/A
Airport -

Arrival

Time 2026-04-26 17:17
Airport San Diego International Airport (KSAN)
Time Latitude Longitude Altitude Speed Heading
2026-04-26 17:12 32.73899 -117.21245 1216 ft 174 kts 288°
2026-04-26 17:13 32.75850 -117.21761 1242 ft 139 kts 19°
2026-04-26 17:13 32.76286 -117.20887 1122 ft 132 kts 95°
2026-04-26 17:13 32.76095 -117.18785 1155 ft 132 kts 99°
2026-04-26 17:14 32.75964 -117.17637 1208 ft 146 kts 99°
2026-04-26 17:14 32.75480 -117.15143 1578 ft 147 kts 107°
2026-04-26 17:14 32.75017 -117.14198 1491 ft 124 kts 161°
2026-04-26 17:15 32.73387 -117.14242 1271 ft 113 kts 185°
2026-04-26 17:15 32.72686 -117.14289 1124 ft 97 kts 203°
2026-04-26 17:15 32.72425 -117.14998 972 ft 102 kts 276°
2026-04-26 17:16 32.72600 -117.15793 804 ft 97 kts 282°
2026-04-26 17:16 32.72777 -117.16546 488 ft 94 kts 285°
2026-04-26 17:16 32.72950 -117.17289 216 ft 89 kts 288°
2026-04-26 17:16 32.73102 -117.17933 33 ft 73 kts 286°
2026-04-26 17:17 32.73233 -117.18463 17 ft 63 kts 290°
2026-04-26 17:17 32.73345 -117.18905 17 ft 48 kts 287°
2026-04-26 17:17 32.73510 -117.19584 219 ft 116 kts 287°
2026-04-26 17:17 32.73752 -117.20587 606 ft 141 kts 286°
2026-04-26 17:18 32.74031 -117.21761 1031 ft 155 kts 298°
2026-04-26 17:18 32.74954 -117.22236 1199 ft 148 kts
2026-04-26 17:18 32.75872 -117.21951 1262 ft 137 kts 45°
2026-04-26 17:18 32.76077 -117.20871 1289 ft 132 kts 95°
2026-04-26 17:19 32.75831 -117.18412 1515 ft 168 kts 97°
2026-04-26 17:19 32.75666 -117.16974 1447 ft 176 kts 98°
2026-04-26 17:19 32.75480 -117.15569 1335 ft 173 kts 105°
2026-04-26 17:20 32.74496 -117.14872 1141 ft 196 kts 185°
2026-04-26 17:20 32.73584 -117.15004 1090 ft 201 kts 198°
2026-04-26 17:20 32.72869 -117.16862 430 ft 233 kts 278°
2026-04-26 17:20 32.73332 -117.18825 107 ft 249 kts 287°
2026-04-26 17:21 32.73723 -117.20598 1240 ft 156 kts 264°
2026-04-26 17:21 32.73576 -117.22056 1698 ft 180 kts 288°
2026-04-26 17:21 32.74576 -117.22490 1198 ft 157 kts 359°
2026-04-26 17:21 32.75640 -117.22288 889 ft 159 kts 37°
2026-04-26 17:22 32.75843 -117.21019 757 ft 166 kts 92°
2026-04-26 17:22 32.75829 -117.19659 815 ft 162 kts 88°
2026-04-26 17:22 32.75852 -117.18334 908 ft 153 kts 90°
2026-04-26 17:22 32.75840 -117.17135 1127 ft 143 kts 93°
2026-04-26 17:23 32.75775 -117.15934 1370 ft 147 kts 94°
2026-04-26 17:23 32.75689 -117.14772 1771 ft 139 kts 96°
2026-04-26 17:23 32.75281 -117.13733 1848 ft 140 kts 146°
2026-04-26 17:23 32.74391 -117.13463 1618 ft 133 kts 185°